Home   Weather   Hoyerswerda   Past weeks

Flag for Germany Past Weather in Hoyerswerda, Saxony, Germany — Yesterday and Last 2 Weeks

45 °F

Passing clouds.

Feels Like: 40 °F
Forecast: 43 / 54 °F
Wind: 9 mph from Southeast

Location: Dresden-Klotzsche

Current Time: Oct 23, 2016 at 6:14:26 PM

Latest Report: Oct 23, 2016 at 5:20 PM

Visibility: N/A

Pressure: 30.01 "Hg

Humidity: 87%

Dew Point: 41 °F

Location of HoyerswerdaLocation

Past Weather in Hoyerswerda — Graph


Hoyerswerda Temperature Yesterday

Maximum temperature yesterday: 46 °F (at 12:20 PM)
Minimum temperature yesterday: 37 °F (at 7:20 AM)
Average temperature yesterday: 42 °F

High & Low Weather Summary for the Past Weeks

High63 °F (Oct 16, 2:50 PM)100% (Oct 8, 5:50 PM)30.27 "Hg (Oct 8, 5:50 PM)
Low36 °F (Oct 11, 6:50 AM)64% (Oct 16, 2:50 PM)29.80 "Hg (Oct 15, 1:20 AM)
Average47 °F90%30.06 "Hg
* Reported Oct 8 4:20 PM — Oct 23 4:50 PM, Hoyerswerda, Weather by CustomWeather, © 2016

Note: Actual official high and low records may vary slightly from our data, if they occured in-between our weather recording intervals... More about our weather records


Hoyerswerda Weather History for the Previous 24 Hours

Scroll right to see more
Time TempWeatherWind HumidityBarometerVisibility
4:50 PM
Sun, Oct 23
46 °FPassing clouds.12 mph82%29.98 "HgN/A
4:20 PM48 °FPassing clouds.12 mph76%29.98 "HgN/A
3:50 PM50 °FScattered clouds.9 mph76%29.98 "HgN/A
3:20 PM50 °FScattered clouds.7 mph76%29.98 "HgN/A
2:50 PM52 °FPassing clouds.9 mph67%29.98 "HgN/A
2:20 PM52 °FPassing clouds.8 mph67%29.98 "HgN/A
1:50 PM52 °FPassing clouds.10 mph72%29.98 "HgN/A
1:20 PM50 °FPartly sunny.6 mph82%29.98 "HgN/A
12:50 PM48 °FPartly sunny.8 mph82%30.01 "HgN/A
12:20 PM46 °FPartly sunny.7 mph87%30.01 "HgN/A
11:50 AM45 °FPassing clouds.7 mph93%30.01 "HgN/A
11:20 AM45 °FClear.7 mph93%30.01 "Hg6 mi
10:50 AM43 °FClear.7 mph100%30.01 "Hg5 mi
10:20 AM41 °FClear.5 mph100%30.01 "Hg4 mi
9:50 AM41 °FClear.3 mph93%30.01 "Hg4 mi
9:20 AM39 °FFog.2 mph100%30.01 "Hg3 mi
8:50 AM39 °FFog.1 mph100%30.01 "Hg3 mi
8:20 AM36 °FFog.1 mph100%29.98 "Hg1 mi
7:50 AM36 °FFog.2 mph100%29.98 "Hg4 mi
7:20 AM36 °FFog.2 mph100%29.98 "Hg0 mi
6:50 AM36 °FFog.1 mph100%29.98 "Hg4 mi
6:20 AM37 °FFog.2 mph93%29.98 "Hg5 mi
5:50 AM39 °FFog.2 mph100%29.98 "HgN/A
5:20 AM36 °FFog.2 mph100%29.98 "Hg2 mi
4:50 AM37 °FPassing clouds.3 mph100%29.98 "HgN/A
4:20 AM39 °FClear.1 mph93%29.98 "Hg10 mi
3:50 AM39 °FClear.3 mph93%29.98 "Hg10 mi
3:20 AM39 °FPartly cloudy.2 mph100%29.98 "HgN/A
2:50 AM41 °FPassing clouds.2 mph93%29.98 "HgN/A
2:20 AM41 °FPassing clouds.3 mph93%29.98 "HgN/A
1:50 AM41 °FClear.2 mph93%29.98 "Hg10 mi
1:20 AM41 °FPassing clouds.6 mph93%29.98 "HgN/A
12:50 AM39 °FPassing clouds.5 mph100%29.98 "HgN/A
12:20 AM39 °FClear.6 mph93%29.98 "Hg10 mi
11:50 PM
Sat, Oct 22
39 °FClear.5 mph93%29.98 "Hg10 mi
11:20 PM39 °FClear.5 mph100%29.98 "Hg10 mi
10:50 PM39 °FClear.5 mph100%29.98 "Hg10 mi
10:20 PM39 °FClear.5 mph100%29.98 "Hg10 mi
9:50 PM39 °FClear.2 mph100%29.98 "Hg10 mi
9:20 PM39 °FClear.3 mph100%29.95 "Hg10 mi
8:50 PM41 °FPassing clouds.2 mph93%29.95 "HgN/A
8:20 PM41 °FClear.5 mph100%29.95 "Hg10 mi
7:50 PM41 °FClear.6 mph100%29.95 "Hg10 mi
7:20 PM43 °FLight rain. Partly cloudy.5 mph93%29.95 "HgN/A
6:50 PM43 °FPartly cloudy.5 mph93%29.95 "HgN/A
6:20 PM43 °FPassing clouds.2 mph87%29.92 "HgN/A
Weather by CustomWeather, © 2016

See weather overviewHow to use our weather pages